Waarnemingen

Advertentie
Mijn weer
Arezzo, Italië (16172): temperatuur & dauwpunt: 14.01.2018 00:00:00 - 20.01.2018 00:00:00 (CET)Arezzo, Italië (16172): windsnelheid: 14.01.2018 00:00:00 - 20.01.2018 00:00:00 (CET)Arezzo, Italië (16172): windrichting: 14.01.2018 00:00:00 - 20.01.2018 00:00:00 (CET)Arezzo, Italië (16172): luchtdruk: 14.01.2018 00:00:00 - 20.01.2018 00:00:00 (CET)Arezzo, Italië (16172): zicht: 14.01.2018 00:00:00 - 20.01.2018 00:00:00 (CET)
Datum & Tijd tt [°C] td [°C] ff [km/u] ff [kn] dd ppp [hPa] vv [km]
20.01.2018 00:00:00 - - - - - - -
19.01.2018 23:00:00 - - - - - - -
19.01.2018 22:00:00 - - - - - - -
19.01.2018 21:00:00 - - - - - - -
19.01.2018 20:00:00 - - - - - - -
19.01.2018 19:00:00 7,8 7,2 4 2 OZO 1011,7 8
19.01.2018 18:00:00 - - - - - - -
19.01.2018 17:00:00 - - - - - - -
19.01.2018 16:00:00 9,0 6,6 8 4 ZZW 1011,1 12
19.01.2018 15:00:00 - - - - - - -
19.01.2018 14:00:00 - - - - - - -
19.01.2018 13:00:00 9,0 6,6 9 5 Z 1012,6 5
19.01.2018 12:00:00 - - - - - - -
19.01.2018 11:00:00 - - - - - - -
19.01.2018 10:00:00 6,4 5,7 5 3 Z 1013,0 3,0
19.01.2018 09:00:00 - - - - - - -
19.01.2018 08:00:00 - - - - - - -
19.01.2018 07:00:00 6,4 5,2 5 3 ZZO 1014,2 10
19.01.2018 06:00:00 - - - - - - -
19.01.2018 05:00:00 - - - - - - -
19.01.2018 04:00:00 - - - - - - -
19.01.2018 03:00:00 - - - - - - -
19.01.2018 02:00:00 - - - - - - -
19.01.2018 01:00:00 - - - - - - -
19.01.2018 00:00:00 - - - - - - -
18.01.2018 23:00:00 - - - - - - -
18.01.2018 22:00:00 - - - - - - -
18.01.2018 21:00:00 - - - - - - -
18.01.2018 20:00:00 - - - - - - -
18.01.2018 19:00:00 8,0 0,2 5 3 WZW 1017,3 14
18.01.2018 18:00:00 - - - - - - -
18.01.2018 17:00:00 - - - - - - -
18.01.2018 16:00:00 9,8 -1,5 13 7 ZZW 1017,4 18
18.01.2018 15:00:00 - - - - - - -
18.01.2018 14:00:00 - - - - - - -
18.01.2018 13:00:00 7,6 -1,6 13 7 Z 1019,3 18
18.01.2018 12:00:00 - - - - - - -
18.01.2018 11:00:00 - - - - - - -
18.01.2018 10:00:00 1,8 -3,7 4 2 NO 1020,7 16
18.01.2018 09:00:00 - - - - - - -
18.01.2018 08:00:00 - - - - - - -
18.01.2018 07:00:00 -4,6 -5,4 0 0 N 1020,1 14
18.01.2018 06:00:00 - - - - - - -
18.01.2018 05:00:00 - - - - - - -
18.01.2018 04:00:00 - - - - - - -
18.01.2018 03:00:00 - - - - - - -
18.01.2018 02:00:00 - - - - - - -
18.01.2018 01:00:00 - - - - - - -
18.01.2018 00:00:00 - - - - - - -
17.01.2018 23:00:00 - - - - - - -
17.01.2018 22:00:00 - - - - - - -
17.01.2018 21:00:00 - - - - - - -
17.01.2018 20:00:00 - - - - - - -
17.01.2018 19:00:00 7,6 -9,7 15 8 NNW 1009,8 16
17.01.2018 18:00:00 - - - - - - -
17.01.2018 17:00:00 - - - - - - -
17.01.2018 16:00:00 9,8 -9,8 16 9 NNW 1005,0 15
17.01.2018 15:00:00 - - - - - - -
17.01.2018 14:00:00 - - - - - - -
17.01.2018 13:00:00 12,2 -2,1 21 11 W 1001,3 15
17.01.2018 12:00:00 - - - - - - -
17.01.2018 11:00:00 - - - - - - -
17.01.2018 10:00:00 10,8 4,3 24 13 W 1001,4 12
17.01.2018 09:00:00 - - - - - - -
17.01.2018 08:00:00 - - - - - - -
17.01.2018 07:00:00 11,0 4,7 26 14 WZW 1002,0 13
17.01.2018 06:00:00 - - - - - - -
17.01.2018 05:00:00 - - - - - - -
17.01.2018 04:00:00 - - - - - - -
17.01.2018 03:00:00 - - - - - - -
17.01.2018 02:00:00 - - - - - - -
17.01.2018 01:00:00 - - - - - - -
17.01.2018 00:00:00 - - - - - - -
16.01.2018 23:00:00 - - - - - - -
16.01.2018 22:00:00 - - - - - - -
16.01.2018 21:00:00 - - - - - - -
16.01.2018 20:00:00 - - - - - - -
16.01.2018 19:00:00 9,4 6,7 13 7 Z 1010,2 10
16.01.2018 18:00:00 - - - - - - -
16.01.2018 17:00:00 - - - - - - -
16.01.2018 16:00:00 9,2 7,0 22 12 Z 1011,3 7
16.01.2018 15:00:00 - - - - - - -
16.01.2018 14:00:00 - - - - - - -
16.01.2018 13:00:00 8,4 6,9 21 11 Z 1013,2 4,0
16.01.2018 12:00:00 - - - - - - -
16.01.2018 11:00:00 - - - - - - -
16.01.2018 10:00:00 8,4 5,2 18 10 ZZW 1014,9 10
16.01.2018 09:00:00 - - - - - - -
16.01.2018 08:00:00 - - - - - - -
16.01.2018 07:00:00 7,0 6,1 15 8 Z 1016,0 6
16.01.2018 06:00:00 - - - - - - -
16.01.2018 05:00:00 - - - - - - -
16.01.2018 04:00:00 - - - - - - -
16.01.2018 03:00:00 - - - - - - -
16.01.2018 02:00:00 - - - - - - -
16.01.2018 01:00:00 - - - - - - -
16.01.2018 00:00:00 - - - - - - -
15.01.2018 23:00:00 - - - - - - -
15.01.2018 22:00:00 - - - - - - -
15.01.2018 21:00:00 - - - - - - -
15.01.2018 20:00:00 - - - - - - -
15.01.2018 19:00:00 5,2 2,7 4 2 OZO 1021,9 12
15.01.2018 18:00:00 - - - - - - -
15.01.2018 17:00:00 - - - - - - -
15.01.2018 16:00:00 9,0 0,7 8 4 Z 1021,5 15
15.01.2018 15:00:00 - - - - - - -
15.01.2018 14:00:00 - - - - - - -
15.01.2018 13:00:00 7,6 1,9 8 4 ZW 1023,5 14
15.01.2018 12:00:00 - - - - - - -
15.01.2018 11:00:00 - - - - - - -
15.01.2018 10:00:00 3,4 1,3 4 2 ZO 1023,9 12
15.01.2018 09:00:00 - - - - - - -
15.01.2018 08:00:00 - - - - - - -
15.01.2018 07:00:00 -0,2 -0,5 0 0 N 1023,4 10
15.01.2018 06:00:00 - - - - - - -
15.01.2018 05:00:00 - - - - - - -
15.01.2018 04:00:00 - - - - - - -
15.01.2018 03:00:00 - - - - - - -
15.01.2018 02:00:00 - - - - - - -
15.01.2018 01:00:00 - - - - - - -
15.01.2018 00:00:00 - - - - - - -
14.01.2018 23:00:00 - - - - - - -
14.01.2018 22:00:00 - - - - - - -
14.01.2018 21:00:00 - - - - - - -
14.01.2018 20:00:00 - - - - - - -
14.01.2018 19:00:00 7,2 1,7 9 5 OZO 1020,9 14
14.01.2018 18:00:00 - - - - - - -
14.01.2018 17:00:00 - - - - - - -
14.01.2018 16:00:00 8,0 1,2 4 2 O 1020,1 18
14.01.2018 15:00:00 - - - - - - -
14.01.2018 14:00:00 - - - - - - -
14.01.2018 13:00:00 8,4 0,9 4 2 ONO 1020,3 18
14.01.2018 12:00:00 - - - - - - -
14.01.2018 11:00:00 - - - - - - -
14.01.2018 10:00:00 6,0 1,3 0 0 N 1020,4 16
14.01.2018 09:00:00 - - - - - - -
14.01.2018 08:00:00 - - - - - - -
14.01.2018 07:00:00 6,0 0,6 5 3 NO 1020,0 12
14.01.2018 06:00:00 - - - - - - -
14.01.2018 05:00:00 - - - - - - -
14.01.2018 04:00:00 - - - - - - -
14.01.2018 03:00:00 - - - - - - -
14.01.2018 02:00:00 - - - - - - -
14.01.2018 01:00:00 - - - - - - -
14.01.2018 00:00:00 - - - - - - -

tt = temperatuur
td = dauwpunt
ff = windsnelheid
dd = windrichting
ppp = luchtdruk
vv = zicht

Weerstations in de omgeving